Location: Asheville, NC
(35.6000°N, 82.5500°W)
Time: 23:44:01
(UTC-04:00)

Vanguard 2 Rocket - Pass Details

Date: 12 December 2017
Orbit: 553 x 3327 km, 32.9° (Epoch: 16 June)

Event Time Altitude Azimuth Distance (km) Brightness Sun altitude
Rises 18:29:18 0° 219° (SW) 4,533 11.5 -14.2°
Reaches altitude 10° 18:32:01 10° 212° (SSW) 3,866 10.9 -14.7°
Maximum altitude 18:42:13 45° 144° (SE) 2,951 9.3 -16.7°
Enters shadow 18:53:07 21° 88° (E) 4,834 9.9 -18.8°
Drops below altitude 10° 18:58:25 10° 80° (E) 6,023 - -19.9°
Sets 19:03:53 0° 75° (ENE) 7,233 - -20.9°
